Time,TemperatureF,DewpointF,PressureIn,WindDirection,WindDirectionDegrees,WindSpeedMPH,WindSpeedGustMPH,Humidity,HourlyPrecipIn,Conditions,Clouds,dailyrainin,SoftwareType,DateUTC
2013-05-16 00:02:00,59.0,41.0,29.78,WNW,293,0.0,0.0,52,0.00,,,0.02,,2013-05-16 04:02:00,
2013-05-16 00:12:00,59.0,41.0,29.78,WNW,293,0.0,0.0,52,0.00,,,0.02,,2013-05-16 04:12:00,
2013-05-16 00:23:00,58.0,41.0,29.78,WNW,293,0.0,0.0,53,0.00,,,0.02,,2013-05-16 04:23:00,
2013-05-16 00:33:00,57.0,41.0,29.78,WNW,293,0.0,0.0,54,0.00,,,0.02,,2013-05-16 04:33:00,
2013-05-16 00:42:00,57.0,41.0,29.78,WNW,293,0.0,0.0,54,0.00,,,0.02,,2013-05-16 04:42:00,
2013-05-16 00:53:00,57.0,41.0,29.78,WNW,293,0.0,0.0,55,0.00,,,0.02,,2013-05-16 04:53:00,
2013-05-16 01:02:00,56.0,41.0,29.78,WNW,293,0.0,0.0,57,0.00,,,0.02,,2013-05-16 05:02:00,
2013-05-16 01:12:00,56.0,41.0,29.78,WNW,293,0.0,0.0,57,0.00,,,0.02,,2013-05-16 05:12:00,
2013-05-16 01:22:00,55.0,41.0,29.78,WNW,293,0.0,0.0,59,0.00,,,0.02,,2013-05-16 05:22:00,
2013-05-16 01:32:00,54.0,40.0,29.78,WNW,293,0.0,0.0,59,0.00,,,0.02,,2013-05-16 05:32:00,
2013-05-16 01:42:00,54.0,40.0,29.78,WNW,293,0.0,0.0,59,0.00,,,0.02,,2013-05-16 05:42:00,
2013-05-16 01:52:00,54.0,41.0,29.78,WNW,293,0.0,0.0,61,0.00,,,0.02,,2013-05-16 05:52:00,
2013-05-16 02:02:00,53.0,40.0,29.78,WNW,293,0.0,0.0,62,0.00,,,0.00,,2013-05-16 06:02:00,
2013-05-16 02:12:00,53.0,40.0,29.78,WNW,293,0.0,0.0,62,0.00,,,0.00,,2013-05-16 06:12:00,
2013-05-16 02:22:00,53.0,41.0,29.78,WSW,248,0.0,0.0,63,0.00,,,0.00,,2013-05-16 06:22:00,
2013-05-16 02:33:00,53.0,41.0,29.78,WNW,293,0.0,0.0,63,0.00,,,0.00,,2013-05-16 06:33:00,
2013-05-16 02:43:00,53.0,41.0,29.78,WNW,293,0.0,0.0,63,0.00,,,0.00,,2013-05-16 06:43:00,
2013-05-16 02:52:00,53.0,41.0,29.78,WNW,293,0.0,0.0,64,0.00,,,0.00,,2013-05-16 06:52:00,
2013-05-16 03:02:00,53.0,42.0,29.78,WNW,293,0.0,0.0,65,0.00,,,0.00,,2013-05-16 07:02:00,
2013-05-16 03:12:00,53.0,42.0,29.78,WNW,293,0.0,0.0,65,0.00,,,0.00,,2013-05-16 07:12:00,
2013-05-16 03:24:00,54.0,43.0,29.77,WNW,293,0.0,0.0,65,0.00,,,0.00,,2013-05-16 07:24:00,
2013-05-16 03:34:00,54.0,43.0,29.77,NW,315,0.0,0.0,65,0.00,,,0.00,,2013-05-16 07:34:00,
2013-05-16 03:44:00,54.0,43.0,29.77,NW,315,0.0,0.0,65,0.00,,,0.00,,2013-05-16 07:44:00,
2013-05-16 03:54:00,54.0,43.0,29.78,NW,315,0.0,0.0,65,0.00,,,0.00,,2013-05-16 07:54:00,
2013-05-16 04:03:00,54.0,42.0,29.77,West,270,0.0,0.0,64,0.00,,,0.00,,2013-05-16 08:03:00,
2013-05-16 04:13:00,53.0,42.0,29.78,West,270,0.0,0.0,65,0.00,,,0.00,,2013-05-16 08:13:00,
2013-05-16 04:24:00,53.0,42.0,29.78,West,270,0.0,0.0,65,0.00,,,0.00,,2013-05-16 08:24:00,
2013-05-16 04:34:00,53.0,42.0,29.78,West,270,0.0,0.0,66,0.00,,,0.00,,2013-05-16 08:34:00,
2013-05-16 04:45:00,52.0,41.0,29.78,West,270,0.0,0.0,67,0.00,,,0.00,,2013-05-16 08:45:00,
2013-05-16 04:54:00,52.0,41.0,29.78,West,270,0.0,0.0,67,0.00,,,0.00,,2013-05-16 08:54:00,
2013-05-16 05:04:00,51.0,41.0,29.78,West,270,0.0,0.0,68,0.00,,,0.00,,2013-05-16 09:04:00,
2013-05-16 05:14:00,50.0,40.0,29.79,West,270,0.0,0.0,69,0.00,,,0.00,,2013-05-16 09:14:00,
2013-05-16 05:24:00,50.0,40.0,29.79,West,270,0.0,0.0,69,0.00,,,0.00,,2013-05-16 09:24:00,
2013-05-16 05:35:00,49.0,40.0,29.80,West,270,0.0,0.0,70,0.00,,,0.00,,2013-05-16 09:35:00,
2013-05-16 05:45:00,49.0,40.0,29.80,West,270,0.0,0.0,71,0.00,,,0.00,,2013-05-16 09:45:00,
2013-05-16 05:55:00,49.0,40.0,29.80,West,270,0.0,0.0,71,0.00,,,0.00,,2013-05-16 09:55:00,
2013-05-16 06:05:00,48.0,39.0,29.80,West,270,0.0,0.0,72,0.00,,,0.00,,2013-05-16 10:05:00,
2013-05-16 06:15:00,48.0,39.0,29.81,West,270,0.0,0.0,72,0.00,,,0.00,,2013-05-16 10:15:00,
2013-05-16 06:24:00,48.0,39.0,29.81,West,270,0.0,0.0,72,0.00,,,0.00,,2013-05-16 10:24:00,
2013-05-16 06:36:00,47.0,39.0,29.81,West,270,0.0,0.0,73,0.00,,,0.00,,2013-05-16 10:36:00,
2013-05-16 06:45:00,47.0,39.0,29.81,West,270,0.0,0.0,73,0.00,,,0.00,,2013-05-16 10:45:00,
2013-05-16 06:56:00,47.0,39.0,29.81,West,270,0.0,0.0,74,0.00,,,0.00,,2013-05-16 10:56:00,
2013-05-16 07:05:00,47.0,39.0,29.81,West,270,0.0,0.0,74,0.00,,,0.00,,2013-05-16 11:05:00,
2013-05-16 07:14:00,47.0,39.0,29.81,West,270,0.0,0.0,74,0.00,,,0.00,,2013-05-16 11:14:00,
2013-05-16 07:25:00,47.0,39.0,29.81,West,270,0.0,0.0,75,0.00,,,0.00,,2013-05-16 11:25:00,
2013-05-16 07:35:00,48.0,40.0,29.82,West,270,0.0,0.0,75,0.00,,,0.00,,2013-05-16 11:35:00,
2013-05-16 07:46:00,48.0,40.0,29.82,West,270,0.0,0.0,75,0.00,,,0.00,,2013-05-16 11:46:00,
2013-05-16 07:56:00,50.0,43.0,29.82,WSW,248,0.0,0.0,76,0.00,,,0.00,,2013-05-16 11:56:00,
2013-05-16 08:06:00,53.0,45.0,29.82,West,270,0.0,0.0,75,0.00,,,0.00,,2013-05-16 12:06:00,
2013-05-16 08:13:00,53.0,45.0,29.82,West,270,0.0,0.0,75,0.00,,,0.00,,2013-05-16 12:13:00,
2013-05-16 08:23:00,57.0,48.0,29.83,West,270,0.0,0.0,71,0.00,,,0.00,,2013-05-16 12:23:00,
2013-05-16 08:35:00,60.0,49.0,29.83,WSW,248,2.0,5.0,67,0.00,,,0.00,,2013-05-16 12:35:00,
2013-05-16 08:45:00,60.0,49.0,29.83,WSW,248,2.0,5.0,67,0.00,,,0.00,,2013-05-16 12:45:00,
2013-05-16 08:53:00,62.0,49.0,29.84,WNW,293,0.0,0.0,63,0.00,,,0.00,,2013-05-16 12:53:00,
2013-05-16 09:04:00,64.0,50.0,29.84,NNW,338,1.0,3.0,61,0.00,,,0.00,,2013-05-16 13:04:00,
2013-05-16 09:12:00,65.0,50.0,29.85,NNW,338,0.0,0.0,59,0.00,,,0.00,,2013-05-16 13:12:00,
2013-05-16 09:26:00,65.0,50.0,29.85,NNW,338,0.0,0.0,59,0.00,,,0.00,,2013-05-16 13:26:00,
2013-05-16 09:35:00,66.0,50.0,29.85,West,270,0.0,0.0,57,0.00,,,0.00,,2013-05-16 13:35:00,
2013-05-16 09:43:00,66.0,50.0,29.85,West,270,0.0,0.0,57,0.00,,,0.00,,2013-05-16 13:43:00,
2013-05-16 09:55:00,68.0,51.0,29.86,NNW,338,0.0,0.0,55,0.00,,,0.00,,2013-05-16 13:55:00,
2013-05-16 10:05:00,69.0,51.0,29.87,NW,315,0.0,0.0,52,0.00,,,0.00,,2013-05-16 14:05:00,
2013-05-16 10:16:00,69.0,51.0,29.87,NW,315,0.0,0.0,52,0.00,,,0.00,,2013-05-16 14:16:00,
2013-05-16 10:23:00,70.0,51.0,29.87,NW,315,0.0,1.0,51,0.00,,,0.00,,2013-05-16 14:23:00,
2013-05-16 10:37:00,71.0,51.0,29.87,NNE,23,0.0,0.0,50,0.00,,,0.00,,2013-05-16 14:37:00,
2013-05-16 10:47:00,71.0,51.0,29.87,NNE,23,0.0,0.0,50,0.00,,,0.00,,2013-05-16 14:47:00,
2013-05-16 10:55:00,72.0,50.0,29.87,NW,315,0.0,0.0,46,0.00,,,0.00,,2013-05-16 14:55:00,
2013-05-16 11:08:00,73.0,51.0,29.87,NW,315,3.0,8.0,46,0.00,,,0.00,,2013-05-16 15:08:00,
2013-05-16 11:17:00,74.0,50.0,29.88,NNW,338,0.0,0.0,43,0.00,,,0.00,,2013-05-16 15:17:00,
2013-05-16 11:28:00,74.0,50.0,29.88,NNW,338,0.0,0.0,43,0.00,,,0.00,,2013-05-16 15:28:00,
2013-05-16 11:40:00,75.0,50.0,29.88,North,0,0.0,0.0,42,0.00,,,0.00,,2013-05-16 15:40:00,
2013-05-16 11:50:00,76.0,51.0,29.87,NNW,338,0.0,0.0,42,0.00,,,0.00,,2013-05-16 15:50:00,
2013-05-16 12:00:00,76.0,51.0,29.87,NNW,338,0.0,0.0,42,0.00,,,0.00,,2013-05-16 16:00:00,
2013-05-16 12:09:00,78.0,52.0,29.88,North,0,0.0,0.0,40,0.00,,,0.00,,2013-05-16 16:09:00,
2013-05-16 12:30:00,78.0,52.0,29.89,WNW,293,0.0,0.0,41,0.00,,,0.00,,2013-05-16 16:30:00,
2013-05-16 12:40:00,79.0,-99.9,29.88,North,0,0.0,0.0,39,0.00,,,0.00,,2013-05-16 16:40:00,
2013-05-16 13:00:00,79.0,53.0,29.88,North,0,3.0,8.0,40,0.00,,,0.00,,2013-05-16 17:00:00,
2013-05-16 13:10:00,80.0,51.0,29.88,North,0,0.0,0.0,37,0.00,,,0.00,,2013-05-16 17:10:00,
2013-05-16 13:31:00,80.0,52.0,29.88,West,270,0.0,0.0,38,0.00,,,0.00,,2013-05-16 17:31:00,
2013-05-16 13:40:00,80.0,51.0,29.87,NNE,23,3.0,6.0,36,0.00,,,0.00,,2013-05-16 17:40:00,
2013-05-16 13:50:00,81.0,-99.9,29.87,NNW,338,0.0,0.0,36,0.00,,,0.00,,2013-05-16 17:50:00,
2013-05-16 14:00:00,81.0,-99.9,29.87,NNW,338,0.0,0.0,36,0.00,,,0.00,,2013-05-16 18:00:00,
2013-05-16 14:10:00,82.0,51.0,29.87,NNW,338,2.0,6.0,34,0.00,,,0.00,,2013-05-16 18:10:00,
2013-05-16 14:30:00,-999.0,-99.9,29.87,North,0,6.0,8.0,35,0.00,,,0.00,,2013-05-16 18:30:00,
2013-05-16 14:40:00,-999.0,-99.9,29.86,NW,315,0.0,0.0,34,0.00,,,0.00,,2013-05-16 18:40:00,
2013-05-16 14:51:00,-999.0,-99.9,29.86,NW,315,0.0,0.0,34,0.00,,,0.00,,2013-05-16 18:51:00,
2013-05-16 15:00:00,-999.0,-99.9,29.87,NW,315,6.0,6.0,35,0.00,,,0.00,,2013-05-16 19:00:00,
2013-05-16 15:10:00,83.0,-99.9,29.86,West,270,0.0,0.0,34,0.00,,,0.00,,2013-05-16 19:10:00,
2013-05-16 15:30:00,83.0,52.0,29.87,NE,45,0.0,0.0,34,0.00,,,0.00,,2013-05-16 19:30:00,
2013-05-16 15:40:00,83.0,-99.9,29.87,NW,315,1.0,0.0,34,0.00,,,0.00,,2013-05-16 19:40:00,
2013-05-16 15:51:00,-999.0,-99.9,29.87,NW,315,1.0,0.0,34,0.00,,,0.00,,2013-05-16 19:51:00,
2013-05-16 16:00:00,83.0,-99.9,29.87,West,270,0.0,0.0,33,0.00,,,0.00,,2013-05-16 20:00:00,
2013-05-16 16:10:00,-999.0,-99.9,29.87,NNW,338,0.0,5.0,33,0.00,,,0.00,,2013-05-16 20:10:00,
2013-05-16 16:20:00,83.0,-99.9,29.86,North,0,1.0,7.0,31,0.00,,,0.00,,2013-05-16 20:20:00,
2013-05-16 16:30:00,83.0,-99.9,29.86,North,0,1.0,7.0,31,0.00,,,0.00,,2013-05-16 20:30:00,
2013-05-16 16:41:00,-999.0,-99.9,29.87,NW,315,1.0,12.0,33,0.00,,,0.00,,2013-05-16 20:41:00,
2013-05-16 16:50:00,83.0,50.0,29.87,WNW,293,7.0,10.0,32,0.00,,,0.00,,2013-05-16 20:50:00,
2013-05-16 17:00:00,83.0,50.0,29.87,WNW,293,7.0,10.0,32,0.00,,,0.00,,2013-05-16 21:00:00,
2013-05-16 17:10:00,83.0,-99.9,29.87,NNW,338,1.0,5.0,31,0.00,,,0.00,,2013-05-16 21:10:00,
2013-05-16 17:20:00,83.0,-99.9,29.87,NNW,338,1.0,5.0,31,0.00,,,0.00,,2013-05-16 21:20:00,
2013-05-16 17:29:00,82.0,48.0,29.87,NNW,338,2.0,8.0,31,0.00,,,0.00,,2013-05-16 21:29:00,
2013-05-16 17:38:00,82.0,48.0,29.87,NW,315,2.0,8.0,31,0.00,,,0.00,,2013-05-16 21:38:00,
2013-05-16 17:50:00,82.0,-99.9,29.87,NW,315,2.0,8.0,31,0.00,,,0.00,,2013-05-16 21:50:00,
2013-05-16 18:00:00,-999.0,-99.9,29.88,North,0,0.0,6.0,30,0.00,,,0.00,,2013-05-16 22:00:00,
2013-05-16 18:08:00,81.0,47.0,29.88,NNE,23,5.0,8.0,30,0.00,,,0.00,,2013-05-16 22:08:00,
2013-05-16 18:21:00,81.0,47.0,29.88,NNE,23,5.0,8.0,30,0.00,,,0.00,,2013-05-16 22:21:00,
2013-05-16 18:30:00,79.0,48.0,29.89,NNE,23,1.0,6.0,34,0.00,,,0.00,,2013-05-16 22:30:00,
2013-05-16 18:40:00,77.0,48.0,29.90,NE,45,0.0,0.0,36,0.00,,,0.00,,2013-05-16 22:40:00,
2013-05-16 18:51:00,77.0,48.0,29.90,NE,45,0.0,0.0,36,0.00,,,0.00,,2013-05-16 22:51:00,
2013-05-16 19:00:00,75.0,48.0,29.89,North,0,0.0,0.0,38,0.00,,,0.00,,2013-05-16 23:00:00,
2013-05-16 19:06:00,74.0,47.0,29.90,NE,45,0.0,0.0,39,0.00,,,0.00,,2013-05-16 23:06:00,
2013-05-16 19:16:00,72.0,48.0,29.90,North,0,0.0,1.0,42,0.00,,,0.00,,2013-05-16 23:16:00,
2013-05-16 19:24:00,72.0,48.0,29.90,North,0,0.0,1.0,42,0.00,,,0.00,,2013-05-16 23:24:00,
2013-05-16 19:35:00,70.0,48.0,29.91,NW,315,0.0,0.0,45,0.00,,,0.00,,2013-05-16 23:35:00,
2013-05-16 19:45:00,70.0,48.0,29.91,NW,315,0.0,0.0,45,0.00,,,0.00,,2013-05-16 23:45:00,
2013-05-16 19:54:00,69.0,47.0,29.92,NE,45,0.0,0.0,46,0.00,,,0.00,,2013-05-16 23:54:00,
2013-05-16 20:03:00,67.0,46.0,29.92,NNW,338,0.0,0.0,47,0.00,,,0.00,,2013-05-17 00:03:00,
2013-05-16 20:13:00,67.0,46.0,29.92,NNW,338,0.0,0.0,47,0.00,,,0.00,,2013-05-17 00:13:00,
2013-05-16 20:22:00,67.0,46.0,29.93,NNE,23,3.0,3.0,47,0.00,,,0.00,,2013-05-17 00:22:00,
2013-05-16 20:33:00,66.0,45.0,29.94,East,90,0.0,0.0,47,0.00,,,0.00,,2013-05-17 00:33:00,
2013-05-16 20:43:00,66.0,45.0,29.94,East,90,0.0,0.0,47,0.00,,,0.00,,2013-05-17 00:43:00,
2013-05-16 20:52:00,65.0,44.0,29.95,NNE,23,0.0,0.0,46,0.00,,,0.00,,2013-05-17 00:52:00,
2013-05-16 21:03:00,63.0,42.0,29.95,NE,45,0.0,0.0,47,0.00,,,0.00,,2013-05-17 01:03:00,
2013-05-16 21:12:00,63.0,42.0,29.95,NE,45,0.0,0.0,47,0.00,,,0.00,,2013-05-17 01:12:00,
2013-05-16 21:23:00,62.0,42.0,29.96,NE,45,1.0,1.0,48,0.00,,,0.00,,2013-05-17 01:23:00,
2013-05-16 21:32:00,61.0,42.0,29.97,NE,45,0.0,0.0,49,0.00,,,0.00,,2013-05-17 01:32:00,
2013-05-16 21:43:00,61.0,42.0,29.97,NE,45,0.0,0.0,49,0.00,,,0.00,,2013-05-17 01:43:00,
2013-05-16 21:52:00,60.0,41.0,29.98,East,90,0.0,0.0,50,0.00,,,0.00,,2013-05-17 01:52:00,
2013-05-16 22:02:00,59.0,40.0,30.00,East,90,0.0,0.0,50,0.00,,,0.00,,2013-05-17 02:02:00,
2013-05-16 22:11:00,59.0,40.0,30.00,East,90,0.0,0.0,50,0.00,,,0.00,,2013-05-17 02:11:00,
2013-05-16 22:22:00,58.0,40.0,30.01,NNE,23,0.0,0.0,51,0.00,,,0.00,,2013-05-17 02:22:00,
2013-05-16 22:32:00,57.0,40.0,30.01,NE,45,0.0,0.0,52,0.00,,,0.00,,2013-05-17 02:32:00,
2013-05-16 22:42:00,57.0,40.0,30.01,NE,45,0.0,0.0,52,0.00,,,0.00,,2013-05-17 02:42:00,
2013-05-16 22:53:00,56.0,39.0,30.02,ENE,68,0.0,0.0,53,0.00,,,0.00,,2013-05-17 02:53:00,
2013-05-16 23:02:00,56.0,39.0,30.03,NE,45,0.0,0.0,53,0.00,,,0.00,,2013-05-17 03:02:00,
2013-05-16 23:11:00,56.0,39.0,30.03,NE,45,0.0,0.0,53,0.00,,,0.00,,2013-05-17 03:11:00,
2013-05-16 23:23:00,55.0,39.0,30.03,ENE,68,0.0,0.0,54,0.00,,,0.00,,2013-05-17 03:23:00,
2013-05-16 23:34:00,54.0,38.0,30.03,East,90,0.0,0.0,55,0.00,,,0.00,,2013-05-17 03:34:00,
2013-05-16 23:43:00,54.0,38.0,30.03,East,90,0.0,0.0,55,0.00,,,0.00,,2013-05-17 03:43:00,
2013-05-16 23:53:00,53.0,38.0,30.04,ENE,68,0.0,0.0,56,0.00,,,0.00,,2013-05-17 03:53:00,